Meteo Giornale » Osservazioni meteo Francia » Saint-Yan

ore: 18:00 - Osservazioni Meteo Saint-Yan
Lat. 46° 25' N Lon. 4° 1' E Alt. 242 metri s.l.m.

sereno Europe/Paris

29 °C

Sereno

Temp. 24 Ore

11 °C

29 °C

Nord

3.7 Km/h

Dew point 10 °C

Umidità 30 %

Visibilità  10 Km

Il sole sorge alle ore 07:23

Il sole tramonta alle ore 19:53

Data e Ora Cielo e Fenomeni T °C DP °C Um. % Pres. hPa Vis. km Vento km/h
Oggi h: 18:00 sereno Sereno 29 10 30 1017 10 N 3.7
Oggi h: 17:00 sereno Sereno 29 10 30 1017 10 N 0
Oggi h: 16:30 sereno Sereno 29 9 28 1017 10 N 5.5
Oggi h: 16:00 sereno Sereno 29 9 28 1018 10 N/NE 9.3
Oggi h: 15:30 sereno Sereno 29 7 25 1018 10 NE 11.1
Oggi h: 15:00 sereno Sereno 29 6 23 1018 10 NE 7.4
Oggi h: 14:30 sereno Sereno 28 6 24 1018 10 N 9.3
Oggi h: 14:00 sereno Sereno 28 6 24 1019 10 N 5.5
Oggi h: 13:30 sereno Sereno 27 7 28 1019 10 N 3.7
Oggi h: 13:00 sereno Sereno 26 5 25 1019 10 N 7.4
Oggi h: 12:30 sereno Sereno 26 8 31 1019 10 N 5.5
Oggi h: 12:00 sereno Sereno 25 8 33 1020 10 N/NE 7.4
Oggi h: 11:30 sereno Sereno 24 8 35 1020 10 N/NE 7.4
Oggi h: 11:00 sereno Sereno 23 8 38 1020 10 NE 9.3
Oggi h: 10:30 sereno Sereno 22 8 40 1020 10 N/NE 7.4
Oggi h: 10:00 sereno Sereno 19 9 52 1020 10 N 0
Oggi h: 09:30 sereno Sereno 17 9 59 1020 10 N 1.8
Oggi h: 09:00 sereno Sereno 15 9 67 1020 10 N 0
Oggi h: 08:30 sereno Sereno 13 9 76 1020 10 N 0
Oggi h: 08:00 sereno Sereno 11 8 81 1019 10 N 0
Oggi h: 07:30 sereno Sereno 11 9 87 1019 10 N 1.8
Oggi h: 06:30 sereno Sereno 12 8 76 1019 10 N 0
Oggi h: 06:00 sereno Sereno 12 8 76 1019 10 N 0
Oggi h: 05:30 sereno Sereno 12 8 76 1019 10 N 3.7
Oggi h: 05:00 sereno Sereno 13 9 76 1019 10 N 0
Oggi h: 04:30 sereno Sereno 13 9 76 1019 10 N 0
Oggi h: 04:00 sereno Sereno 14 9 71 1019 10 N 0
Oggi h: 03:30 sereno Sereno 15 9 67 1019 10 N 0
Oggi h: 03:00 sereno Sereno 15 9 67 1019 10 N 0
Oggi h: 02:30 sereno Sereno 15 9 67 1019 10 N 0
Oggi h: 02:00 sereno Sereno 16 9 63 1019 10 N 0
Oggi h: 01:30 sereno Sereno 16 9 63 1019 10 N 3.7
Oggi h: 01:00 sereno Sereno 17 10 63 1019 10 N 0
Oggi h: 00:30 sereno Sereno 18 9 55 1019 10 N 0
Oggi h: 00:00 sereno Sereno 19 10 55 1019 10 N 0
Ieri h: 23:30 sereno Sereno 20 9 49 1019 10 N 0
Ieri h: 23:00 sereno Sereno 21 9 46 1019 10 N 0
Ieri h: 22:30 sereno Sereno 22 9 43 1019 10 N 5.5
Ieri h: 22:00 sereno Sereno 22 10 46 1018 10 N 0
Ieri h: 21:30 sereno Sereno 23 10 43 1018 10 N 5.5
Ieri h: 21:00 sereno Sereno 24 11 43 1018 10 N/NO 11.1
Ieri h: 20:30 sereno Sereno 25 12 44 1018 10 NO 11.1
Ieri h: 20:00 sereno Sereno 26 12 41 1018 10 N 7.4